When you browse on this site, cookies collect data to enhance your experience and personalize the content and advertising you see.
Visit our Privacy Policy to learn more. By continuing to use the site, you agree to this use of cookies and data.
  • în România
  • Lista ţărilor
  • Pe 7 zile
  • Temperatura apei
  • Hartă satelitară
  • Meteo pe hartă
  • Widget-uri
  • user-avatar
    Intrare

    Meteo pe oră la Canillo

    Astăzi, 22 Ianuarie, Marţi

    Timp Temperatura Precipitaţii Vânt Presiune Umiditate
    00:00 -10°C° 0 mm 2 m/s 612 mmHg 84%
    01:00 -10°C° 0 mm 2 m/s 611 mmHg 77%
    02:00 -12°C° 0 mm 2 m/s 611 mmHg 70%
    03:00 -12°C° 0 mm 2 m/s 610 mmHg 63%
    04:00 -12°C° 0 mm 2 m/s 610 mmHg 58%
    05:00 -12°C° 0 mm 2 m/s 610 mmHg 54%
    06:00 -12°C° 0 mm 2 m/s 609 mmHg 50%
    07:00 -10°C° 0 mm 2 m/s 610 mmHg 49%
    08:00 -8°C° 0 mm 2 m/s 610 mmHg 49%
    09:00 -7°C° 0 mm 2 m/s 611 mmHg 48%
    10:00 -3°C° 0 mm 1 m/s 611 mmHg 45%
    11:00 -1°C° 0 mm 1 m/s 611 mmHg 42%
    12:00 0°C° 0 mm 1 m/s 611 mmHg 38%
    13:00 0°C° 0.3 mm 1 m/s 610 mmHg 50%
    14:00 -1°C° 0.3 mm 1 m/s 609 mmHg 62%
    15:00 -2°C° 0.3 mm 1 m/s 608 mmHg 74%
    16:00 -4°C° 0.5 mm 2 m/s 608 mmHg 77%
    17:00 -6°C° 0.5 mm 3 m/s 608 mmHg 80%
    18:00 -6°C° 0.5 mm 3 m/s 607 mmHg 83%
    19:00 -8°C° 0 mm 3 m/s 607 mmHg 84%
    20:00 -8°C° 0 mm 2 m/s 606 mmHg 85%
    21:00 -9°C° 0 mm 2 m/s 605 mmHg 87%
    22:00 -9°C° 0.1 mm 2 m/s 605 mmHg 87%
    23:00 -7°C° 0.1 mm 1 m/s 605 mmHg 88%

    Mâine, 23 Ianuarie, Miercuri

    Timp Temperatura Precipitaţii Vânt Presiune Umiditate
    00:00 -6°C° 0.1 mm 1 m/s 605 mmHg 88%
    01:00 -7°C° 0.7 mm 2 m/s 605 mmHg 89%
    02:00 -6°C° 0.7 mm 2 m/s 605 mmHg 89%
    03:00 -6°C° 0.7 mm 2 m/s 605 mmHg 90%
    04:00 -6°C° 0.8 mm 2 m/s 604 mmHg 91%
    05:00 -4°C° 0.8 mm 1 m/s 603 mmHg 92%
    06:00 -4°C° 0.8 mm 1 m/s 602 mmHg 93%
    07:00 -4°C° 1.6 mm 1 m/s 602 mmHg 93%
    08:00 -4°C° 1.6 mm 1 m/s 602 mmHg 94%
    09:00 -4°C° 1.6 mm 1 m/s 601 mmHg 94%
    10:00 -6°C° 2 mm 2 m/s 601 mmHg 94%
    11:00 -7°C° 2 mm 3 m/s 602 mmHg 95%
    12:00 -8°C° 2 mm 4 m/s 602 mmHg 95%
    13:00 -10°C° 1.2 mm 5 m/s 601 mmHg 94%
    14:00 -10°C° 1.2 mm 6 m/s 601 mmHg 94%
    15:00 -12°C° 1.2 mm 7 m/s 601 mmHg 94%
    16:00 -12°C° 1 mm 7 m/s 601 mmHg 94%
    17:00 -13°C° 1 mm 7 m/s 601 mmHg 95%
    18:00 -13°C° 1 mm 8 m/s 601 mmHg 95%
    19:00 -15°C° 0.6 mm 8 m/s 602 mmHg 95%
    20:00 -15°C° 0.6 mm 8 m/s 602 mmHg 95%
    21:00 -16°C° 0.6 mm 8 m/s 602 mmHg 94%
    22:00 -16°C° 0.9 mm 8 m/s 603 mmHg 94%
    23:00 -16°C° 0.9 mm 9 m/s 603 mmHg 94%

    Poimâine, 24 Ianuarie, Joi

    Timp Temperatura Precipitaţii Vânt Presiune Umiditate
    00:00 -16°C° 0.9 mm 9 m/s 603 mmHg 94%
    01:00 -16°C° 0.9 mm 8 m/s 603 mmHg 94%
    02:00 -15°C° 0.9 mm 7 m/s 604 mmHg 94%
    03:00 -17°C° 0.9 mm 7 m/s 604 mmHg 94%
    04:00 -17°C° 0.6 mm 7 m/s 604 mmHg 94%
    05:00 -17°C° 0.6 mm 7 m/s 605 mmHg 94%
    06:00 -17°C° 0.6 mm 7 m/s 605 mmHg 93%
    07:00 -17°C° 0.2 mm 7 m/s 606 mmHg 92%
    08:00 -15°C° 0.2 mm 7 m/s 606 mmHg 90%
    09:00 -15°C° 0.2 mm 7 m/s 607 mmHg 89%
    10:00 -14°C° 0.1 mm 7 m/s 607 mmHg 88%
    11:00 -12°C° 0.1 mm 6 m/s 608 mmHg 87%
    12:00 -11°C° 0.1 mm 6 m/s 609 mmHg 85%
    13:00 -11°C° 0 mm 6 m/s 609 mmHg 85%
    14:00 -12°C° 0 mm 6 m/s 609 mmHg 85%
    15:00 -12°C° 0 mm 6 m/s 609 mmHg 85%
    16:00 -13°C° 0 mm 5 m/s 609 mmHg 86%
    17:00 -14°C° 0 mm 5 m/s 609 mmHg 87%
    18:00 -15°C° 0 mm 4 m/s 609 mmHg 89%
    19:00 -15°C° 0 mm 4 m/s 610 mmHg 89%
    20:00 -15°C° 0 mm 4 m/s 610 mmHg 90%
    21:00 -16°C° 0 mm 4 m/s 611 mmHg 90%
    22:00 -16°C° 0 mm 4 m/s 611 mmHg 88%
    23:00 -16°C° 0 mm 4 m/s 611 mmHg 87%

    25 Ianuarie, Vineri

    Timp Temperatura Precipitaţii Vânt Presiune Umiditate
    00:00 -16°C° 0 mm 3 m/s 610 mmHg 85%
    01:00 -16°C° 0 mm 4 m/s 610 mmHg 81%
    02:00 -16°C° 0 mm 4 m/s 610 mmHg 78%
    03:00 -16°C° 0 mm 4 m/s 610 mmHg 74%
    04:00 -15°C° 0 mm 4 m/s 611 mmHg 74%
    05:00 -14°C° 0 mm 4 m/s 611 mmHg 74%
    06:00 -12°C° 0 mm 4 m/s 612 mmHg 73%
    07:00 -10°C° 0 mm 4 m/s 613 mmHg 78%
    08:00 -8°C° 0 mm 4 m/s 614 mmHg 82%
    09:00 -5°C° 0 mm 4 m/s 615 mmHg 86%
    10:00 -4°C° 0 mm 4 m/s 615 mmHg 88%
    11:00 -3°C° 0 mm 4 m/s 615 mmHg 89%
    12:00 -2°C° 0 mm 5 m/s 616 mmHg 91%
    13:00 -3°C° 0 mm 4 m/s 616 mmHg 91%
    14:00 -3°C° 0 mm 4 m/s 615 mmHg 91%
    15:00 -3°C° 0 mm 4 m/s 615 mmHg 91%
    16:00 -3°C° 0 mm 4 m/s 615 mmHg 92%
    17:00 -4°C° 0 mm 4 m/s 615 mmHg 92%
    18:00 -4°C° 0 mm 4 m/s 615 mmHg 93%
    19:00 -4°C° 0 mm 3 m/s 616 mmHg 93%
    20:00 -4°C° 0 mm 3 m/s 616 mmHg 93%
    21:00 -4°C° 0 mm 3 m/s 616 mmHg 93%
    22:00 -5°C° 0 mm 3 m/s 616 mmHg 93%
    23:00 -5°C° 0 mm 3 m/s 616 mmHg 93%

    26 Ianuarie, Sâmbătă

    Timp Temperatura Precipitaţii Vânt Presiune Umiditate
    00:00 -4°C° 0 mm 2 m/s 616 mmHg 93%
    01:00 -5°C° 0 mm 2 m/s 615 mmHg 92%
    02:00 -6°C° 0 mm 2 m/s 615 mmHg 92%
    03:00 -6°C° 0 mm 2 m/s 614 mmHg 92%
    04:00 -6°C° 0 mm 2 m/s 614 mmHg 91%
    05:00 -7°C° 0 mm 2 m/s 614 mmHg 90%
    06:00 -7°C° 0 mm 2 m/s 614 mmHg 89%
    07:00 -5°C° 0 mm 2 m/s 614 mmHg 88%
    08:00 -4°C° 0 mm 2 m/s 615 mmHg 87%
    09:00 -1°C° 0 mm 1 m/s 616 mmHg 86%
    10:00 +1°C° 0 mm 1 m/s 616 mmHg 88%
    11:00 +2°C° 0 mm 1 m/s 616 mmHg 90%
    12:00 +3°C° 0 mm 1 m/s 616 mmHg 92%
    13:00 +3°C° 0 mm 1 m/s 615 mmHg 93%
    14:00 +3°C° 0 mm 1 m/s 615 mmHg 95%
    15:00 +2°C° 0 mm 1 m/s 614 mmHg 96%
    16:00 +1°C° 0 mm 1 m/s 613 mmHg 96%
    17:00 0°C° 0 mm 1 m/s 613 mmHg 96%
    18:00 -2°C° 0 mm 1 m/s 612 mmHg 96%
    19:00 -3°C° 0 mm 1 m/s 612 mmHg 95%
    20:00 -5°C° 0 mm 2 m/s 611 mmHg 94%
    21:00 -6°C° 0 mm 2 m/s 611 mmHg 92%
    22:00 -6°C° 0.1 mm 2 m/s 611 mmHg 92%
    23:00 -5°C° 0.1 mm 2 m/s 611 mmHg 92%

    27 Ianuarie, Duminică

    Timp Temperatura Precipitaţii Vânt Presiune Umiditate
    00:00 -5°C° 0.1 mm 3 m/s 611 mmHg 91%
    01:00 -6°C° 0.2 mm 3 m/s 611 mmHg 92%
    02:00 -7°C° 0.2 mm 4 m/s 611 mmHg 92%
    03:00 -8°C° 0.2 mm 5 m/s 611 mmHg 92%
    04:00 -8°C° 0.1 mm 4 m/s 611 mmHg 92%
    05:00 -9°C° 0.1 mm 4 m/s 611 mmHg 91%
    06:00 -9°C° 0.1 mm 4 m/s 611 mmHg 91%
    07:00 -9°C° 0 mm 4 m/s 611 mmHg 89%
    08:00 -9°C° 0 mm 4 m/s 612 mmHg 88%
    09:00 -9°C° 0 mm 4 m/s 612 mmHg 86%
    10:00 -8°C° 0.1 mm 4 m/s 612 mmHg 86%
    11:00 -7°C° 0.1 mm 4 m/s 612 mmHg 85%
    12:00 -5°C° 0.1 mm 4 m/s 612 mmHg 84%
    13:00 -5°C° 0.1 mm 4 m/s 612 mmHg 85%
    14:00 -5°C° 0.1 mm 4 m/s 611 mmHg 85%
    15:00 -5°C° 0.1 mm 4 m/s 611 mmHg 85%
    16:00 -6°C° 0.1 mm 3 m/s 610 mmHg 88%
    17:00 -7°C° 0.1 mm 3 m/s 610 mmHg 90%
    18:00 -7°C° 0.1 mm 2 m/s 609 mmHg 92%
    19:00 -7°C° 0 mm 2 m/s 609 mmHg 92%
    20:00 -7°C° 0 mm 2 m/s 608 mmHg 91%
    21:00 -7°C° 0 mm 2 m/s 608 mmHg 90%
    22:00 -6°C° 1.6 mm 2 m/s 608 mmHg 92%
    23:00 -6°C° 1.6 mm 3 m/s 608 mmHg 94%
    Arată mai mult